Location: Arlington
(40.6323°N, 74.1651°W)
Time: 05:19:57
(UTC+00:00)

Hubble Space Telescope - Pass Details

Date: 22 November 2019
Orbit: 536 x 540 km, 28.5° (Epoch: 05 December)

Event Time Altitude Azimuth Distance (km) Brightness Sun altitude
Rises 22:15:15 0° 225° (SW) 2,665 5.7 -8.0°
Reaches altitude 10° 22:18:40 10° 196° (SSW) 1,777 3.9 -8.6°
Maximum altitude 22:20:27 13° 170° (S) 1,620 3.3 -9.0°
Drops below altitude 10° 22:22:14 10° 144° (SE) 1,779 3.2 -9.3°
Enters shadow 22:24:46 - 120° (ESE) 2,401 3.7 -9.7°
